Погода Молчаново

Погода Молчаново : погода сейчас, прогноз погоды и архив. Всё, что Вы хотите узнать о погоде Молчаново!

Поиск расширенной информации на нашем сайте:

Другие новости

Новости СМИ2

Главная страница сайта

Новости сайта

03.07.2017

Напоминаем, что на нашем специализированном сайте Метеоцентр.Азия вы можете получить высокодетализированные автоматические прогнозы погоды по пунктам России, СНГ и мира в авиационном формате (включающие направление и скорость ветра, видимость, явления погоды, количество и форму облачности, нижнюю и верхнюю границу облачности).


Погода Молчаново - сегодня

Время (UTC), дата Ветер
(°,м/с) 
Видим.   Явления Облачность Т
(°С)
Тd
(°С)
f(%) Тe
(°С)
Pmin
(гПа)
dP
(гПа)
Po
(мм)
O2
(г/м3)
Тmin Tmax R s Состояние
почвы
00 17.10.17 350 (С) 20000 м    10/10 200 м 
[St]
-2.6 -3 97 -5  1026.4  2.1  759  309  -2.9         
03 17.10.17 010 (С) 20000 м    10/10 300 м 
[St]
-2.2 -3.4 91 -2  1028.2  1.8  760  309           
06 17.10.17 350 (С) 20000 м    10/10 300 м 
[Sc]
-1.6 -3.7 86 -1  1028.9  0.7  761  309           
09 17.10.17 030 (СВ) 20000 м    10/10 600 м 
[Sc]
-1.5 -3.9 84 -2  1028.5  -0.3  761  309           
12 17.10.17 110 (В) 20000 м    10/10 600 м 
[Sc]
-2.1 -4.4 84 -2  1028.3  -0.2  760  309    -1.2       
15 17.10.17 080 (В) 20000 м    10/10 600 м 
[Sc]
-2.5 -4.9 84 -4  1027.9  -0.4  760  310           
18 17.10.17 120 (ЮВ) 20000 м    10/10 600 м 
[Sc]
-2.4 -4.5 85 -3  1026  -1.9  759  309           
21 17.10.17 050 (СВ) 20000 м    10/10 600 м 
[Sc]
-2 -4.1 85 -3  1024.6  -1.3  758  308           
00 18.10.17 090 (В) 20000 м    10/10 600 м 
[Sc]
-2.8 -5.3 83 -4  1023.6  -1.1  757  309  -2.9         
03 18.10.17 080 (В) 20000 м    10/8 600 м средняя 
[Sc|Ac trans]
-2 -4.9 80 -4  1022.4  -1.1  756  307           
06 18.10.17 080 (В) 20000 м    10/10 600 м 
[Sc]
-0.3 -3.9 77 -2  1020.7  -1.6  755  305           
09 18.10.17 040 (СВ) 20000 м    10/10 600 м 
[Sc]
+0.3 -3.4 76 -1  1019.2  -1.4  754  304           
12 18.10.17 090 (В) 20000 м    10/10 600 м 
[Sc]
+0.1 -3.1 79 -1  1018.3  -0.9  753  304    +0.4       
15 18.10.17 090 (В) 20000 м    10/10 600 м 
[Sc]
+0.7 -1.2 87 -1  1017.4  -0.9  752  303           
18 18.10.17 070 (В) 20000 м    10/10 600 м 
[Sc]
+0.5 -1.1 89 1016.4  -1  752  302           
21 18.10.17 080 (В) 20000 м    10/10 600 м 
[Sc]
+0.3 -0.9 92 1015.3  -1.1  751  302           
00 19.10.17 080 (В) 20000 м    10/10 600 м 
[Sc]
+0.3 -0.9 92 +1  1015  -0.3  751  302  +0.1         
03 19.10.17 090 (В) 20000 м    10/10 600 м 
[Sc]
+1.1 -0.8 87 1014.5  -0.4  750  301           
06 19.10.17 110 (В) 20000 м    10/8 600 м средняя 
[Sc|Ac As]
+2.2 -0.1 85 +1  1014.1  -0.3  750  300           
09 19.10.17 120 (ЮВ) 20000 м    10/8 600 м средняя 
[Sc|Ac As]
+2.2 +0.8 90 +2  1014.2  750  300           
12 19.10.17 160 (Ю) 10 км  слаб. ливневой дождь  10/6 300 м кучево-дожд., средняя 
[Cb calv|Ac trans]
+2 +1.2 94 +1  1014.6  0.4  750  300    +2.4  0.0     
15 19.10.17 160 (Ю) 10 км  слаб. ливневой дождь  10/6 300 м кучево-дожд., средняя 
[Cb calv|Ac As]
+1.5 +0.9 96 +1  1014.5  -0.1  750  301           
18 19.10.17 130 (ЮВ) 20000 м  {ливн. осадки}  10/10 300 м 
[St]
+2.4 +1.9 97 +2  1013.7  -0.8  750  299           
21 19.10.17 130 (ЮВ) 2000 м  дымка  10/10 100 м 
[St]
+3.4 +3 97 +3  1012  -1.6  749  297           
00 20.10.17 120 (ЮВ) 20000 м    10/10 300 м 
[St]
+4.1 +3.7 97 +3  1010.8  -1.1  748  296  +1.2       
Время (UTC), дата Ветер
(°,м/с) 
Видим.   Явления Облачность Т
(°С)
Тd
(°С)
f(%) Тe
(°С)
Pmin
(гПа)
dP
(гПа)
Po
(мм)
O2
(г/м3)
Тmin Tmax R s Состояние
почвы

Для получения пояснительной информации подведите курсор к названию столбца.

ПОГОДА Молчаново - архив

Всё, что Вы хотите узнать о погоде Молчаново - удобно и подробно!

Выберите нужную дату (начиная с 1 января 2015* года) и нажмите кнопку "Найти".
Будут отображены архивные сводки погоды по пункту Молчаново, начиная с указанной даты.


Отображать данные в формате CSV (для использования в таблицах Excel)


Внимание! Наш архив погоды предназначен исключительно для личного некоммерческого использования в познавательных целях. Если Вам необходимы официальные справки о состоянии погоды (для производственных, юридических, коммерческих и т.п. целей), обращайтесь в органы Росгидромета.

*Примечание: данная дата относится к архиву по метеостанциям СССР (Россия, СНГ, Балтия).
Архив по метеостанциям Зарубежной Европы и Азии (кроме Китая) хранится 10 дней, по другим регионам земного шара (Китай, Африка, Америка, Австралия, Океания) - 1 день.

Молчаново - район местоположения метеостанции


Название, широта, долгота, высота метеостанции:
Молчаново 57.6°ш. 83.8°д. 114 м над ур. моря [Российская Федерация]

Дополнительная информация

В oтличие oт бoльшинства пoгoдных сайтoв мы публикуем пoдрoбную метеoинфoрмацию в детальнoм прoфессиoнальнoм фoрмате.

Характеристики температуры и влажнoсти вoздуха измеряются на высoте 2 м в тени вдали oт зданий и деревьев.
Скoрoсть ветра измеряется на высoте 10 м (на урoвне рoста челoвека скoрoсть ветра ниже в 1.5-2 раза). Если метеoстанция нахoдится в гoрoде или в лесу, тo скoрoсть ветра занижена на 2-4 м/с пo сравнению с oткрытым местoм. Скoрoсть ветра над акватoриями крупных рек и oзёр, а также на вершинах хoлмoв на 2-5 м/с выше, чем в oбычных услoвиях.
Атмoсфернoе давление в разных тoчках местнoсти мoжет значительнo oтличаться oт давления на метеoстанции, в зависимoсти oт услoвий рельефа (при пoдъёме на 10 м давление пoнижается примернo на 1 мм рт.ст.).